CQ0XBF-11 Chamusca PT current weather conditions

sailwx.info

Wind from 330 at 1 knots gusting 5

Air temperature 29.4° C
Dewpoint 15.5° C

Last reported at 2016-Jul-26 09:54 UTC.
Time now 2016-Jul-26 10:18 UTC

Location: N 39°21' W 008°28'.
View on Google Maps.

See reports from other nearby stations

  
Tides and Currents Weather Stations Pressure Air Temp Water Temp Dewpoint Dewpoint Depression Visibility Wind Speed Wind Dir Waves Ship Positions
date/time (UTC)wind fromknots sea level pressurealtimeterstation pressurevisibilityair tempwater tempwave heightnotes
2016-Jul-26 09:54 330 1 gusting 5 29.4
2016-Jul-26 09:48 274 0 gusting 4 28.9
2016-Jul-26 09:44 279 0 gusting 5 28.9
2016-Jul-26 09:40 299 3 gusting 4 29.4
2016-Jul-26 09:34 202 0 gusting 2 29.4
2016-Jul-26 09:30 241 28.9
2016-Jul-26 09:23 309 28.3
2016-Jul-26 09:19 306 28.3
2016-Jul-26 09:13 302 1 gusting 5 27.8
2016-Jul-26 09:09 355 0 gusting 3 27.8
2016-Jul-26 09:03 316 2 gusting 5 27.2
2016-Jul-26 08:59 322 1 gusting 5 26.7
2016-Jul-26 08:53 324 0 gusting 5 26.7
2016-Jul-26 08:49 341 1 gusting 3 27.2
2016-Jul-26 08:43 322 1 gusting 6 26.7
2016-Jul-26 08:39 299 1 gusting 4 27.2
2016-Jul-26 08:33 323 2 gusting 1 27.8
2016-Jul-26 08:29 073 27.2
2016-Jul-26 08:23 331 1 gusting 4 27.8
2016-Jul-26 08:19 341 1 gusting 4 27.8
2016-Jul-26 08:15 323 1 gusting 3 28.3
2016-Jul-26 08:09 307 28.3
2016-Jul-26 08:04 271 0 gusting 2 28.3
2016-Jul-26 07:58 029 28.3
2016-Jul-26 07:54 246 28.3
2016-Jul-26 07:48 322 0 gusting 1 28.3
2016-Jul-26 07:44 341 28.3
2016-Jul-26 07:38 293 28.3
2016-Jul-26 07:34 317 29.4
2016-Jul-26 07:28 151 29.4
2016-Jul-26 07:24 084 29.4
2016-Jul-26 07:18 181 29.4
2016-Jul-26 07:14 151 0 gusting 2 29.4
2016-Jul-26 07:08 161 2 gusting 2 28.9
2016-Jul-26 07:04 188 28.3
2016-Jul-26 07:00 181 1 gusting 2 27.8
2016-Jul-26 06:54 180 2 gusting 1 27.8
2016-Jul-26 06:50 158 26.7
2016-Jul-26 06:43 199 24.4
2016-Jul-26 06:39 185 22.2
2016-Jul-26 06:33 180 21.7
2016-Jul-26 06:29 157 0 gusting 3 21.7
2016-Jul-26 06:23 213 1 gusting 3 21.7
2016-Jul-26 06:19 225 21.7
2016-Jul-26 06:13 165 0 gusting 2 21.7
2016-Jul-26 06:09 210 2 gusting 2 21.7
2016-Jul-26 06:03 202 0 gusting 2 21.7
2016-Jul-26 05:59 206 1 gusting 2 21.7
2016-Jul-26 05:53 222 0 gusting 2 21.7
2016-Jul-26 05:49 216 1 gusting 2 21.7
2016-Jul-26 05:45 213 0 gusting 3 21.7
2016-Jul-26 05:37 217 0 gusting 3 22.2
2016-Jul-26 05:35 205 1 gusting 3 22.2
2016-Jul-26 05:28 223 0 gusting 2 22.2
2016-Jul-26 05:24 240 0 gusting 3 22.8
2016-Jul-26 05:18 217 22.8
2016-Jul-26 05:14 219 22.8
2016-Jul-26 05:08 220 23.3
2016-Jul-26 05:04 220 23.3
2016-Jul-26 04:58 240 23.3
2016-Jul-26 04:54 292 23.3
2016-Jul-26 04:48 333 23.3
2016-Jul-26 04:44 330 23.3
2016-Jul-26 04:38 330 0 gusting 2 23.3
2016-Jul-26 04:34 338 23.3
2016-Jul-26 04:30 008 0 gusting 1 23.3
2016-Jul-26 04:24 315 23.9
2016-Jul-26 04:20 248 23.9
2016-Jul-26 04:14 009 0 gusting 2 23.9
2016-Jul-26 04:09 329 0 gusting 1 23.9
2016-Jul-26 04:03 327 0 gusting 2 23.9
2016-Jul-26 03:59 284 23.9
2016-Jul-26 03:53 272 23.9
2016-Jul-26 03:49 316 23.9
2016-Jul-26 03:43 293 24.4
2016-Jul-26 03:39 053 24.4
2016-Jul-26 03:33 307 0 gusting 2 24.4
2016-Jul-26 03:29 270 0 gusting 3 24.4
2016-Jul-26 03:23 320 0 gusting 1 24.4
2016-Jul-26 03:19 310 24.4
2016-Jul-26 03:13 305 1 gusting 4 25.0
2016-Jul-26 03:09 317 0 gusting 2 25.0
2016-Jul-26 03:05 274 25.0
2016-Jul-26 02:59 338 25.0
2016-Jul-26 02:55 241 25.0
2016-Jul-26 02:48 326 1 gusting 1 25.0
2016-Jul-26 02:44 277 0 gusting 1 25.0
2016-Jul-26 02:38 319 25.0
2016-Jul-26 02:34 060 25.6
2016-Jul-26 02:28 258 25.6
2016-Jul-26 02:24 253 25.6
2016-Jul-26 02:18 261 0 gusting 4 25.6
2016-Jul-26 02:14 305 1 gusting 5 25.6
2016-Jul-26 02:08 172 25.6
2016-Jul-26 02:04 039 25.6
2016-Jul-26 01:58 106 1 gusting 4 25.6
2016-Jul-26 01:54 312 2 gusting 5 25.6
2016-Jul-26 01:50 305 1 gusting 5 25.6
2016-Jul-26 01:42 341 2 gusting 5 25.6
2016-Jul-26 01:40 279 26.1
2016-Jul-26 01:33 088 2 gusting 3 26.1
2016-Jul-26 01:29 215 0 gusting 4 26.1
2016-Jul-26 01:23 161 1 gusting 4 26.1
2016-Jul-26 01:19 317 3 gusting 4 26.1
2016-Jul-26 01:13 327 1 gusting 6 26.1
2016-Jul-26 01:09 340 3 gusting 6 26.1
2016-Jul-26 01:03 223 0 gusting 5 26.1
2016-Jul-26 00:59 296 1 gusting 4 26.7
2016-Jul-26 00:53 174 0 gusting 4 26.7
2016-Jul-26 00:49 002 26.7
2016-Jul-26 00:43 340 3 gusting 4 26.7
2016-Jul-26 00:39 322 0 gusting 4 26.7
2016-Jul-26 00:35 291 1 gusting 4 26.7
2016-Jul-26 00:29 182 26.7
2016-Jul-26 00:25 310 26.7
2016-Jul-26 00:18 327 1 gusting 4 27.2
2016-Jul-26 00:14 040 1 gusting 5 27.2
2016-Jul-26 00:08 309 1 gusting 6 27.2
2016-Jul-26 00:04 337 3 gusting 4 27.2
2016-Jul-25 23:58 250 2 gusting 6 27.2
2016-Jul-25 23:54 312 0 gusting 4 27.2
2016-Jul-25 23:48 158 27.2
2016-Jul-25 23:44 333 1 gusting 4 27.2
2016-Jul-25 23:38 313 2 gusting 5 27.8
2016-Jul-25 23:34 299 3 gusting 5 27.8
2016-Jul-25 23:28 300 3 gusting 5 27.8
2016-Jul-25 23:24 331 2 gusting 5 27.8
2016-Jul-25 23:18 315 2 gusting 6 27.8
2016-Jul-25 23:14 317 27.8
2016-Jul-25 23:10 352 5 gusting 5 28.3
2016-Jul-25 23:04 300 1 gusting 5 28.3
2016-Jul-25 22:59 327 2 gusting 4 28.3
2016-Jul-25 22:53 338 0 gusting 6 28.3
2016-Jul-25 22:49 326 2 gusting 6 28.9
2016-Jul-25 22:43 206 0 gusting 4 28.9
2016-Jul-25 22:39 105 0 gusting 4 28.9
2016-Jul-25 22:33 323 29.4
2016-Jul-25 22:29 039 0 gusting 4 29.4
2016-Jul-25 22:23 292 2 gusting 4 29.4
2016-Jul-25 22:19 189 29.4
2016-Jul-25 22:13 316 0 gusting 4 30.0
2016-Jul-25 22:09 322 1 gusting 5 30.0
2016-Jul-25 22:03 098 0 gusting 3 30.0
2016-Jul-25 21:59 210 0 gusting 5 30.0
2016-Jul-25 21:55 153 30.6
2016-Jul-25 21:49 291 1 gusting 3 30.6
2016-Jul-25 21:45 316 1 gusting 3 30.6
2016-Jul-25 21:38 299 1 gusting 4 30.6
2016-Jul-25 21:32 239 0 gusting 4 30.6
2016-Jul-25 21:28 217 31.1
2016-Jul-25 21:24 018 0 gusting 5 30.6
2016-Jul-25 21:18 303 3 gusting 4 31.1
2016-Jul-25 21:14 299 0 gusting 4 31.1
2016-Jul-25 21:08 284 1 gusting 5 31.1
2016-Jul-25 21:04 322 1 gusting 4 31.7
2016-Jul-25 20:58 322 3 gusting 5 31.7
2016-Jul-25 20:54 330 2 gusting 6 31.7
2016-Jul-25 20:48 305 32.2
2016-Jul-25 20:40 233 0 gusting 4 32.2
2016-Jul-25 20:34 268 0 gusting 3 32.2
2016-Jul-25 20:30 289 1 gusting 6 32.2
2016-Jul-25 20:23 345 1 gusting 4 32.8
2016-Jul-25 20:19 317 0 gusting 4 32.8
2016-Jul-25 20:13 341 33.3
2016-Jul-25 20:09 272 0 gusting 4 33.3
2016-Jul-25 20:03 312 1 gusting 6 33.3
2016-Jul-25 19:59 324 4 gusting 6 33.3
2016-Jul-25 19:53 322 3 gusting 5 33.9
2016-Jul-25 19:49 317 4 gusting 4 33.9
2016-Jul-25 19:43 303 3 gusting 6 33.9
2016-Jul-25 19:39 338 6 gusting 8 34.4
2016-Jul-25 19:33 315 2 gusting 6 35.0
2016-Jul-25 19:29 309 2 gusting 7 35.0
2016-Jul-25 19:23 282 0 gusting 7 35.0
2016-Jul-25 19:19 354 1 gusting 7 35.6
2016-Jul-25 19:15 324 2 gusting 4 35.6
2016-Jul-25 19:09 327 1 gusting 7 35.6
2016-Jul-25 19:04 322 3 gusting 9 35.6
2016-Jul-25 18:58 351 6 gusting 7 36.1
2016-Jul-25 18:54 358 3 gusting 5 36.7
2016-Jul-25 18:48 326 1 gusting 6 36.7
2016-Jul-25 18:44 334 2 gusting 7 36.7
2016-Jul-25 18:36 317 7 gusting 10 37.2
2016-Jul-25 18:34 255 3 gusting 10 37.2
2016-Jul-25 18:28 307 4 gusting 6 38.3
2016-Jul-25 18:24 095 5 gusting 8 38.3
2016-Jul-25 18:18 334 2 gusting 9 38.3
2016-Jul-25 18:14 347 4 gusting 7 38.3
2016-Jul-25 18:08 343 4 gusting 9 38.9
2016-Jul-25 18:04 299 5 gusting 7 39.4
2016-Jul-25 18:00 021 1 gusting 10 38.9
2016-Jul-25 17:54 312 5 gusting 13 39.4
2016-Jul-25 17:49 347 2 gusting 8 40.0
2016-Jul-25 17:43 310 5 gusting 8 40.0
2016-Jul-25 17:39 307 3 gusting 10 40.0
2016-Jul-25 17:33 307 4 gusting 11 40.0
2016-Jul-25 17:29 293 5 gusting 10 40.6
2016-Jul-25 17:23 317 7 gusting 9 40.6
2016-Jul-25 17:19 306 3 gusting 9 40.6
2016-Jul-25 17:13 305 6 gusting 11 40.6
2016-Jul-25 17:09 306 7 gusting 12 41.1
2016-Jul-25 17:03 326 5 gusting 10 41.1
2016-Jul-25 16:59 296 8 gusting 10 41.1
2016-Jul-25 16:53 275 2 gusting 10 41.7
2016-Jul-25 16:49 272 9 gusting 7 42.2
2016-Jul-25 16:45 292 3 gusting 9 42.2
2016-Jul-25 16:39 337 5 gusting 11 42.2
2016-Jul-25 16:35 310 6 gusting 10 43.3
2016-Jul-25 16:28 226 1 gusting 6 43.9
2016-Jul-25 16:24 254 2 gusting 8 43.9
2016-Jul-25 16:18 307 5 gusting 7 44.4
2016-Jul-25 16:14 295 7 gusting 5 45.0
2016-Jul-25 16:08 317 0 gusting 4 45.6
2016-Jul-25 16:04 319 1 gusting 5 45.6
2016-Jul-25 15:58 215 3 gusting 6 45.6
2016-Jul-25 15:54 254 2 gusting 5 46.1
2016-Jul-25 15:48 265 0 gusting 6 45.6
2016-Jul-25 15:44 281 2 gusting 7 45.0
2016-Jul-25 15:38 298 0 gusting 5 45.0
2016-Jul-25 15:34 295 0 gusting 6 45.6
2016-Jul-25 15:30 302 1 gusting 6 45.6
2016-Jul-25 15:24 029 45.0
2016-Jul-25 15:20 268 45.0
2016-Jul-25 15:13 298 1 gusting 7 45.0
2016-Jul-25 15:09 213 3 gusting 7 45.0
2016-Jul-25 15:03 262 3 gusting 6 45.0
2016-Jul-25 14:59 268 3 gusting 4 45.0
2016-Jul-25 14:53 251 0 gusting 5 44.4
2016-Jul-25 14:49 251 0 gusting 4 44.4
2016-Jul-25 14:43 250 0 gusting 7 45.0
2016-Jul-25 14:39 205 3 gusting 7 44.4
2016-Jul-25 14:33 258 2 gusting 2 44.4
2016-Jul-25 14:29 331 43.9
2016-Jul-25 14:23 275 0 gusting 6 43.3
2016-Jul-25 14:19 237 1 gusting 6 43.3
2016-Jul-25 14:13 253 43.3
2016-Jul-25 14:09 307 1 gusting 6 43.3
2016-Jul-25 14:05 307 42.8
2016-Jul-25 13:59 316 3 gusting 6 42.8
2016-Jul-25 13:54 300 3 gusting 6 42.8
2016-Jul-25 13:48 300 2 gusting 4 43.3
2016-Jul-25 13:44 254 42.8
2016-Jul-25 13:38 302 2 gusting 6 42.2
2016-Jul-25 13:34 309 0 gusting 6 41.7
2016-Jul-25 13:28 205 0 gusting 6 41.1
2016-Jul-25 13:24 305 3 gusting 7 41.1
2016-Jul-25 13:18 296 0 gusting 3 41.7
2016-Jul-25 13:14 309 0 gusting 4 41.7
2016-Jul-25 13:08 302 1 gusting 5 41.1
2016-Jul-25 13:04 199 3 gusting 5 41.1
2016-Jul-25 12:58 331 4 gusting 5 40.6
2016-Jul-25 12:54 264 0 gusting 6 40.6
2016-Jul-25 12:50 244 0 gusting 6 40.6
2016-Jul-25 12:44 253 1 gusting 5 40.0
2016-Jul-25 12:40 284 0 gusting 6 40.6
2016-Jul-25 12:33 264 4 gusting 5 40.0
2016-Jul-25 12:29 315 0 gusting 5 40.0
2016-Jul-25 12:23 295 0 gusting 5 39.4
2016-Jul-25 12:19 274 0 gusting 5 38.9
2016-Jul-25 12:13 303 4 gusting 6 38.9
2016-Jul-25 12:09 315 4 gusting 4 38.9
2016-Jul-25 12:03 272 2 gusting 6 38.3
2016-Jul-25 11:57 262 1 gusting 5 37.8
2016-Jul-25 11:53 293 1 gusting 5 37.8
2016-Jul-25 11:49 337 37.2
2016-Jul-25 11:43 284 4 gusting 6 37.2
2016-Jul-25 11:39 316 3 gusting 6 37.2
2016-Jul-25 11:35 254 1 gusting 4 37.2
2016-Jul-25 11:29 293 2 gusting 5 37.2
2016-Jul-25 11:25 306 4 gusting 6 36.7
2016-Jul-25 11:18 299 4 gusting 4 36.7
2016-Jul-25 11:14 285 3 gusting 4 36.1
2016-Jul-25 11:08 258 0 gusting 4 35.6
2016-Jul-25 11:04 250 1 gusting 5 35.6
2016-Jul-25 10:58 279 0 gusting 5 35.0
2016-Jul-25 10:54 264 0 gusting 6 35.0
2016-Jul-25 10:48 232 0 gusting 5 34.4
2016-Jul-25 10:44 255 0 gusting 6 34.4
2016-Jul-25 10:38 243 1 gusting 3 34.4
2016-Jul-25 10:34 258 1 gusting 5 33.9
2016-Jul-25 10:28 288 4 gusting 6 33.9
2016-Jul-25 10:24 292 0 gusting 6 33.3
2016-Jul-25 10:18 260 0 gusting 7 32.8
2016-Jul-25 10:14 286 2 gusting 7 32.8
2016-Jul-25 10:10 295 3 gusting 6 32.8
2016-Jul-25 10:04 322 1 gusting 6 32.2
2016-Jul-25 09:59 316 4 gusting 6 32.2
2016-Jul-25 09:53 285 1 gusting 4 32.2
2016-Jul-25 09:49 317 1 gusting 4 32.2
2016-Jul-25 09:43 310 1 gusting 4 32.2
2016-Jul-25 09:39 351 0 gusting 4 32.2
2016-Jul-25 09:33 309 0 gusting 3 32.2
2016-Jul-25 09:29 274 2 gusting 4 32.2
2016-Jul-25 09:23 305 1 gusting 2 31.7
2016-Jul-25 09:19 323 0 gusting 2 31.7
2016-Jul-25 09:13 278 1 gusting 2 31.1
2016-Jul-25 09:09 295 0 gusting 4 31.1
2016-Jul-25 09:03 333 2 gusting 3 31.1
2016-Jul-25 08:59 345 1 gusting 1 30.6
2016-Jul-25 08:55 319 30.6
2016-Jul-25 08:49 018 30.6
2016-Jul-25 08:45 327 30.6
2016-Jul-25 08:38 316 0 gusting 2 30.6
2016-Jul-25 08:34 333 30.6
2016-Jul-25 08:28 274 30.6
2016-Jul-25 08:24 329 30.6
2016-Jul-25 08:18 005 30.6
2016-Jul-25 08:14 039 31.1
2016-Jul-25 08:08 267 30.6
2016-Jul-25 08:04 329 1 gusting 1 31.1
2016-Jul-25 07:58 240 32.2
2016-Jul-25 07:54 156 0 gusting 1 32.2
2016-Jul-25 07:48 088 0 gusting 1 32.2
2016-Jul-25 07:44 174 32.8
2016-Jul-25 07:40 001 32.8
2016-Jul-25 07:34 001 32.8
2016-Jul-25 07:30 307 32.8
2016-Jul-25 07:23 120 32.2
2016-Jul-25 07:19 074 32.2
2016-Jul-25 07:13 074 31.7
2016-Jul-25 07:09 147 31.1
2016-Jul-25 07:03 082 30.6
2016-Jul-25 06:59 291 30.6
2016-Jul-25 06:53 070 0 gusting 2 30.0
2016-Jul-25 06:49 111 0 gusting 2 29.4
2016-Jul-25 06:43 116 0 gusting 3 27.2
2016-Jul-25 06:39 066 0 gusting 3 25.6
2016-Jul-25 06:33 302 25.0
2016-Jul-25 06:29 108 0 gusting 5 24.4
2016-Jul-25 06:25 132 2 gusting 5 24.4
2016-Jul-25 06:19 164 1 gusting 6 24.4
2016-Jul-25 06:15 111 2 gusting 4 24.4
2016-Jul-25 06:08 063 2 gusting 5 24.4
2016-Jul-25 06:04 087 3 gusting 5 24.4
2016-Jul-25 05:58 150 0 gusting 6 24.4
2016-Jul-25 05:54 081 1 gusting 5 24.4
2016-Jul-25 05:48 087 0 gusting 4 24.4
2016-Jul-25 05:44 236 0 gusting 3 24.4
2016-Jul-25 05:38 088 0 gusting 4 24.4
2016-Jul-25 05:34 219 0 gusting 5 24.4
2016-Jul-25 05:28 101 2 gusting 4 24.4
2016-Jul-25 05:24 302 1 gusting 3 24.4
2016-Jul-25 05:18 160 0 gusting 4 24.4
2016-Jul-25 05:14 007 0 gusting 4 24.4
2016-Jul-25 05:08 112 3 gusting 3 24.4
2016-Jul-25 05:04 091 1 gusting 3 24.4
2016-Jul-25 05:00 066 0 gusting 3 24.4
2016-Jul-25 04:54 030 0 gusting 2 24.4
2016-Jul-25 04:49 198 0 gusting 2 25.0
2016-Jul-25 04:43 088 0 gusting 2 25.0
2016-Jul-25 04:37 291 25.0
2016-Jul-25 04:33 288 25.0
2016-Jul-25 04:29 316 25.0
2016-Jul-25 04:23 298 1 gusting 2 25.0
2016-Jul-25 04:19 326 0 gusting 3 25.0
2016-Jul-25 04:13 042 1 gusting 2 25.6
2016-Jul-25 04:09 334 0 gusting 3 25.6
2016-Jul-25 04:01 260 25.6
2016-Jul-25 03:59 317 5 gusting 5 25.6
2016-Jul-25 03:53 267 1 gusting 3 25.6
2016-Jul-25 03:49 084 0 gusting 3 25.6
2016-Jul-25 03:45 312 25.6
2016-Jul-25 03:39 023 0 gusting 5 25.6
2016-Jul-25 03:35 094 1 gusting 3 25.6
2016-Jul-25 03:28 268 25.6
2016-Jul-25 03:24 028 1 gusting 3 25.6
2016-Jul-25 03:18 299 0 gusting 3 25.6
2016-Jul-25 03:14 104 1 gusting 3 25.6
2016-Jul-25 03:08 028 26.1
2016-Jul-25 03:04 104 26.1
2016-Jul-25 02:58 160 2 gusting 4 26.1
2016-Jul-25 02:54 002 1 gusting 4 26.1
2016-Jul-25 02:48 099 1 gusting 4 26.1
2016-Jul-25 02:44 358 26.1
2016-Jul-25 02:38 292 26.1
2016-Jul-25 02:34 315 1 gusting 4 26.1
2016-Jul-25 02:30 277 0 gusting 2 26.1
2016-Jul-25 02:24 208 0 gusting 3 26.1
2016-Jul-25 02:20 191 26.1
2016-Jul-25 02:13 168 26.1
2016-Jul-25 02:09 285 26.7
2016-Jul-25 02:03 102 26.7
2016-Jul-25 01:59 196 0 gusting 4 26.7
2016-Jul-25 01:53 234 2 gusting 4 26.7
2016-Jul-25 01:49 268 0 gusting 2 26.7
2016-Jul-25 01:43 274 26.7
2016-Jul-25 01:39 184 26.7
2016-Jul-25 01:33 264 0 gusting 1 26.7
2016-Jul-25 01:29 230 26.7
2016-Jul-25 01:23 177 26.7
2016-Jul-25 01:19 300 1 gusting 2 26.7
2016-Jul-25 01:13 182 1 gusting 5 26.7
2016-Jul-25 01:09 310 2 gusting 5 26.7
2016-Jul-25 01:05 240 1 gusting 2 27.2
2016-Jul-25 00:59 272 1 gusting 6 26.7
2016-Jul-25 00:54 215 2 gusting 3 27.2
2016-Jul-25 00:48 223 1 gusting 5 27.2
2016-Jul-25 00:44 143 3 gusting 5 27.2
2016-Jul-25 00:38 181 0 gusting 3 27.2
2016-Jul-25 00:34 234 2 gusting 5 27.2
2016-Jul-25 00:28 201 2 gusting 3 27.2
2016-Jul-25 00:24 255 1 gusting 5 27.2
2016-Jul-25 00:18 326 5 gusting 3 27.2
2016-Jul-25 00:14 255 1 gusting 4 27.2
2016-Jul-25 00:08 250 0 gusting 2 27.2
2016-Jul-25 00:02 267 2 gusting 3 27.2
2016-Jul-24 23:58 260 1 gusting 3 27.2
2016-Jul-24 23:54 254 1 gusting 4 27.2
2016-Jul-24 23:50 140 0 gusting 5 27.2
2016-Jul-24 23:44 282 0 gusting 4 27.8
2016-Jul-24 23:40 299 3 gusting 3 27.8
2016-Jul-24 23:33 293 2 gusting 3 27.8
2016-Jul-24 23:29 095 2 gusting 4 27.8
2016-Jul-24 23:23 209 0 gusting 4 27.8
2016-Jul-24 23:19 27.8
2016-Jul-24 23:13 340 2 gusting 4 27.8
2016-Jul-24 23:09 244 1 gusting 4 27.8
2016-Jul-24 23:03 043 0 gusting 4 27.8
2016-Jul-24 22:59 312 2 gusting 4 28.3
2016-Jul-24 22:53 258 1 gusting 5 28.3
2016-Jul-24 22:49 303 2 gusting 5 28.3
2016-Jul-24 22:43 240 1 gusting 6 28.3
2016-Jul-24 22:39 327 0 gusting 5 28.3
2016-Jul-24 22:35 316 5 gusting 4 28.3
2016-Jul-24 22:29 331 2 gusting 5 28.3
2016-Jul-24 22:25 265 2 gusting 3 28.9
2016-Jul-24 22:18 317 28.9
2016-Jul-24 22:14 016 28.9
2016-Jul-24 22:08 250 28.9
2016-Jul-24 22:04 244 28.9
2016-Jul-24 21:58 278 0 gusting 3 28.9
2016-Jul-24 21:54 284 0 gusting 5 28.9
2016-Jul-24 21:48 345 1 gusting 5 28.9
2016-Jul-24 21:44 310 0 gusting 6 28.9
2016-Jul-24 21:38 338 3 gusting 6 29.4
2016-Jul-24 21:34 324 2 gusting 7 29.4
2016-Jul-24 21:28 029 2 gusting 9 29.4
2016-Jul-24 21:24 320 6 gusting 8 29.4
2016-Jul-24 21:20 312 3 gusting 8 29.4
2016-Jul-24 21:14 351 5 gusting 6 30.0
2016-Jul-24 21:10 323 4 gusting 6 30.0
2016-Jul-24 21:04 319 4 gusting 6 30.0
2016-Jul-24 20:59 323 3 gusting 7 30.6
2016-Jul-24 20:53 008 0 gusting 6 30.6
2016-Jul-24 20:49 327 1 gusting 5 31.1
2016-Jul-24 20:43 291 5 gusting 6 31.1
2016-Jul-24 20:39 323 5 gusting 6 31.1
2016-Jul-24 20:33 310 3 gusting 6 31.7
2016-Jul-24 20:30 358 0 gusting 6 31.7
2016-Jul-24 20:23 358 2 gusting 6 31.7
2016-Jul-24 20:19 177 1 gusting 6 32.2
2016-Jul-24 20:13 262 0 gusting 6 32.2
2016-Jul-24 20:09 275 0 gusting 6 32.2
2016-Jul-24 20:03 305 2 gusting 5 32.8
2016-Jul-24 19:59 331 3 gusting 6 32.8
2016-Jul-24 19:55 347 4 gusting 6 32.8
2016-Jul-24 19:49 309 4 gusting 11 32.8
2016-Jul-24 19:44 33.3
2016-Jul-24 19:38 326 3 gusting 8 33.3
2016-Jul-24 19:34 018 3 gusting 8 33.9
2016-Jul-24 19:28 358 0 gusting 6 35.6
2016-Jul-24 19:24 343 2 gusting 6 35.6
2016-Jul-24 19:18 313 2 gusting 6 35.6
2016-Jul-24 19:14 358 0 gusting 6 36.1
2016-Jul-24 19:08 315 3 gusting 6 36.1
2016-Jul-24 19:04 281 2 gusting 5 36.7
2016-Jul-24 18:58 323 4 gusting 4 37.8
2016-Jul-24 18:54 285 2 gusting 6 37.8
2016-Jul-24 18:48 333 2 gusting 3 37.8
2016-Jul-24 18:44 320 0 gusting 3 37.2
2016-Jul-24 18:40 261 1 gusting 6 37.2
2016-Jul-24 18:34 030 2 gusting 8 37.2
2016-Jul-24 18:30 312 3 gusting 10 37.2
2016-Jul-24 18:23 329 4 gusting 9 37.2
2016-Jul-24 18:19 009 5 gusting 11 37.2
2016-Jul-24 18:13 327 6 gusting 13 37.2
2016-Jul-24 18:09 355 6 gusting 9 37.8
2016-Jul-24 18:03 343 5 gusting 15 37.8
2016-Jul-24 17:59 344 4 gusting 11 38.3
2016-Jul-24 17:51 340 6 gusting 12 38.3
2016-Jul-24 17:49 299 5 gusting 12 38.3
2016-Jul-24 17:43 324 8 gusting 13 38.9
2016-Jul-24 17:39 307 7 gusting 11 40.0
2016-Jul-24 17:33 270 4 gusting 6 41.7
2016-Jul-24 17:27 337 2 gusting 7 41.7
2016-Jul-24 17:23 322 3 gusting 6 41.7
2016-Jul-24 17:19 341 2 gusting 6 41.7
2016-Jul-24 17:15 267 5 gusting 5 41.7
2016-Jul-24 17:08 336 3 gusting 7 41.1
2016-Jul-24 17:04 289 3 gusting 6 41.1
2016-Jul-24 16:58 315 0 gusting 9 41.7
2016-Jul-24 16:54 288 9 gusting 6 41.7
2016-Jul-24 16:48 284 41.7
2016-Jul-24 16:44 300 6 gusting 8 41.7
2016-Jul-24 16:38 309 7 gusting 7 41.7
2016-Jul-24 16:34 286 7 gusting 6 41.7
2016-Jul-24 16:28 306 4 gusting 7 41.7
2016-Jul-24 16:24 310 6 gusting 6 41.7
2016-Jul-24 16:18 005 3 gusting 7 41.1
2016-Jul-24 16:14 272 6 gusting 8 41.1
2016-Jul-24 16:08 317 5 gusting 8 41.1
2016-Jul-24 16:04 299 6 gusting 8 41.7
2016-Jul-24 16:00 306 3 gusting 7 41.7
2016-Jul-24 15:54 320 3 gusting 8 41.1
2016-Jul-24 15:49 292 6 gusting 10 41.1
2016-Jul-24 15:43 313 4 gusting 9 41.1
2016-Jul-24 15:39 282 8 gusting 8 41.7
2016-Jul-24 15:31 307 5 gusting 8 41.7
2016-Jul-24 15:29 307 5 gusting 8 41.7
2016-Jul-24 15:23 307 3 gusting 8 41.1
2016-Jul-24 15:19 315 5 gusting 8 41.1
2016-Jul-24 15:13 302 6 gusting 8 41.7
2016-Jul-24 15:09 323 3 gusting 7 41.7
2016-Jul-24 15:03 309 6 gusting 9 41.7
2016-Jul-24 14:12 305 0 gusting 6 43.3
2016-Jul-24 14:08 327 2 gusting 6 42.8
2016-Jul-24 13:38 331 1 gusting 6 43.9
2016-Jul-24 13:15 202 0 gusting 5 42.2
2016-Jul-24 13:09 113 2 gusting 6 42.2
2016-Jul-24 13:03 071 42.2
2016-Jul-24 12:59 303 41.1
2016-Jul-24 12:53 047 5 gusting 8 40.6
2016-Jul-24 12:48 320 6 gusting 6 41.1
2016-Jul-24 12:43 125 0 gusting 6 41.1
2016-Jul-24 12:39 334 1 gusting 8 41.1
2016-Jul-24 12:33 338 7 gusting 4 41.1
2016-Jul-24 12:29 012 41.1
2016-Jul-24 12:23 092 40.6
2016-Jul-24 12:19 198 1 gusting 4 40.0
2016-Jul-24 12:13 087 1 gusting 6 40.0
2016-Jul-24 12:09 319 0 gusting 6 40.0
2016-Jul-24 12:05 310 3 gusting 3 40.0
2016-Jul-24 11:59 284 40.0
2016-Jul-24 11:54 306 39.4
2016-Jul-24 11:48 106 2 gusting 6 38.9
2016-Jul-24 11:44 102 2 gusting 6 38.3
2016-Jul-24 11:38 008 0 gusting 2 38.3
2016-Jul-24 11:34 330 1 gusting 6 38.3
2016-Jul-24 11:28 146 38.3
2016-Jul-24 11:24 053 38.3
2016-Jul-24 11:18 298 1 gusting 5 38.3
2016-Jul-24 11:14 246 37.8
2016-Jul-24 11:08 144 36.7
2016-Jul-24 11:04 092 1 gusting 6 36.7
2016-Jul-24 10:58 137 1 gusting 6 36.1
2016-Jul-24 10:54 170 2 gusting 6 36.7
2016-Jul-24 10:50 087 3 gusting 4 36.7
2016-Jul-24 10:44 111 3 gusting 6 36.1
2016-Jul-24 10:40 178 2 gusting 6 36.1
2016-Jul-24 10:33 215 1 gusting 6 35.0
2016-Jul-24 10:29 115 4 gusting 6 35.6
2016-Jul-24 10:23 085 3 gusting 5 35.0
2016-Jul-24 10:19 098 3 gusting 6 34.4
2016-Jul-24 10:13 244 34.4
2016-Jul-24 10:09 116 3 gusting 6 33.9
2016-Jul-24 10:03 170 33.9